Simultaneous Nadir Overpasses (SNOs) Predictions

Prediction of SNOs between GOES-15 and NOAA-20 Satellite Orbit:

Table of predicted SNOs for the next 14.0 days since TLE Epoch: 7/9/2022
Index Date Time (GOES-15) GOES-15 Lat,Lon NOAA-20 Lat,Lon Distance(km) Time Diff (sec)
1 07/09/2022 22:02:33 0.18,-128.45 -0.08,-129.66 138.23 80
2 07/10/2022 21:46:28 0.17,-128.44 0.92,-125.13 377.72 80
3 07/12/2022 10:05:35 -0.21,-128.43 0.22,-130.40 224.66 80
4 07/13/2022 09:49:30 -0.20,-128.41 -0.79,-125.87 290.56 80
5 07/14/2022 22:08:45 0.23,-128.38 -0.40,-131.17 318.24 80
6 07/15/2022 21:52:39 0.21,-128.36 0.61,-126.63 197.27 80
7 07/17/2022 10:11:47 -0.25,-128.36 0.54,-131.91 404.72 80
8 07/18/2022 09:55:41 -0.23,-128.34 -0.47,-127.38 110.56 80
9 07/19/2022 22:14:57 0.26,-128.30 -0.71,-132.68 498.81 80
10 07/20/2022 21:58:51 0.25,-128.28 0.30,-128.14 16.71 80
